Location: Ferintosh
(52.7647°N, 112.9692°W)
Time: 21:05:05
(UTC+00:00)

A-11 Canister half - Pass Details

Date: 20 May 2024
Orbit: 1524 x 1683 km, 47.3° (Epoch: 19 June)

Event Time Altitude Azimuth Distance (km) Brightness Sun altitude
Rises 03:40:27 0° 187° (S) 4,677 11.2 -2.1°
Reaches altitude 10° 03:44:37 10° 170° (S) 3,715 10.6 -2.6°
Maximum altitude 03:50:33 19° 130° (SE) 3,098 10.0 -3.3°
Drops below altitude 10° 03:56:36 10° 90° (E) 3,795 10.6 -4.0°
Sets 04:00:54 0° 74° (ENE) 4,814 11.3 -4.4°
